OK1FCB-1 Weather Reports


time (UTC)temp
C
wind
direction
speed
KPH
gust
KPH
rain 1hr
cm
rain 24hr
cm
rain mn
cm
humidity
%
barometer
mb
20260507021551 11 0.0 0.0 0.00 0.00 0.00 82 1012.0
20260507021545 11 0.0 0.0 0.00 0.00 0.00 82 1012.0
20260507014555 11 0.0 0.0 0.00 0.00 0.00 82 1011.6
20260507014550 11 0.0 0.0 0.00 0.00 0.00 82 1011.6
20260507013058 11 0.0 0.0 0.00 0.00 0.00 82 1011.6
20260507013052 11 0.0 0.0 0.00 0.00 0.00 82 1011.6
20260507011600 11 0.0 0.0 0.00 0.00 0.00 82 1011.3
20260507011555 11 0.0 0.0 0.00 0.00 0.00 82 1011.3
20260507004605 11 0.0 0.0 0.00 0.00 0.00 81 1010.8
20260507004600 11 0.0 0.0 0.00 0.00 0.00 81 1010.8
20260507001610 11 0.0 0.0 0.00 0.00 0.00 81 1010.4
20260507001604 11 0.0 0.0 0.00 0.00 0.00 81 1010.4
20260507000106 12 0.0 0.0 0.00 0.00 0.00 81 1010.5
20260506234614 12 0.0 0.0 0.00 0.00 0.00 81 1010.6
20260506234608 12 0.0 0.0 0.00 0.00 0.00 81 1010.6
20260506221622 12 0.0 0.0 0.00 0.00 0.00 81 1011.3
20260506211631 12 0.0 0.0 0.00 0.00 0.00 80 1009.8
20260506200148 11 0.0 0.0 0.00 0.00 0.00 79 1008.8
20260506200142 11 0.0 0.0 0.00 0.00 0.00 79 1008.8
20260506191654 12 0.0 0.0 0.00 0.00 0.00 78 1008.7
20260506191648 12 0.0 0.0 0.00 0.00 0.00 78 1008.7
20260506190151 12 0.0 0.0 0.00 0.00 0.00 78 1008.6
20260506184658 12 0.0 0.0 0.00 0.00 0.00 77 1008.4
20260506184652 12 0.0 0.0 0.00 0.00 0.00 77 1008.4
20260506181703 12 0.0 0.0 0.00 0.00 0.00 76 1009.5
20260506181658 12 0.0 0.0 0.00 0.00 0.00 76 1009.5
20260506180200 12 0.0 0.0 0.00 0.00 0.00 76 1009.3
20260506170217 15 0.0 0.0 0.00 0.00 0.00 68 1008.2
20260506170212 15 0.0 0.0 0.00 0.00 0.00 68 1008.2
20260506153222 16 0.0 0.0 0.00 0.00 0.00 63 1008.7
20260506151731 16 0.0 0.0 0.00 0.00 0.00 62 1008.8
20260506151725 16 0.0 0.0 0.00 0.00 0.00 62 1008.8
20260506150235 18 0.0 0.0 0.00 0.00 0.00 58 1009.6
20260506150230 18 0.0 0.0 0.00 0.00 0.00 58 1009.6
20260506130311 30 0.0 0.0 0.00 0.00 0.00 31 1009.6
20260506124812 31 0.0 0.0 0.00 0.00 0.00 29 1009.9
20260506123312 30 0.0 0.0 0.00 0.00 0.00 32 1010.1
20260506114821 28 0.0 0.0 0.00 0.00 0.00 35 1010.4
20260506114815 28 0.0 0.0 0.00 0.00 0.00 35 1010.4
20260506113315 26 0.0 0.0 0.00 0.00 0.00 35 1010.7
20260506104826 25 0.0 0.0 0.00 0.00 0.00 37 1010.8
20260506104820 25 0.0 0.0 0.00 0.00 0.00 37 1010.8
20260506103326 25 0.0 0.0 0.00 0.00 0.00 39 1010.9
20260506100321 23 0.0 0.0 0.00 0.00 0.00 40 1011.1
20260506093322 22 0.0 0.0 0.00 0.00 0.00 44 1011.0
20260506084830 20 0.0 0.0 0.00 0.00 0.00 46 1010.9
20260506081831 22 0.0 0.0 0.00 0.00 0.00 45 1010.8
20260506024916 13 0.0 0.0 0.00 0.00 0.00 72 1009.8
20260506024910 13 0.0 0.0 0.00 0.00 0.00 72 1009.8